When you browse on this site, cookies collect data to enhance your experience and personalize the content and advertising you see.
Visit our Privacy Policy to learn more. By continuing to use the site, you agree to this use of cookies and data.
  • En España
  • Lista de países
  • Para 7 días
  • Temperatura del agua
  • El tiempo en el mapa
  • Informadores
  • user-avatar
    Iniciar sesión

    Tiempo cada hora Rimini

    Hoy, 20 Octubre, Domingo

    Tiempo Temperatura Precipitaciones Viento Presión Humedad
    00:00 +17°C° 0 mm 2 mps 763 mmHg 81%
    01:00 +17°C° 0 mm 2 mps 763 mmHg 85%
    02:00 +17°C° 0 mm 2 mps 763 mmHg 85%
    03:00 +17°C° 0 mm 2 mps 762 mmHg 84%
    04:00 +16°C° 0 mm 2 mps 762 mmHg 84%
    05:00 +16°C° 0 mm 2 mps 763 mmHg 83%
    06:00 +16°C° 0 mm 2 mps 763 mmHg 81%
    07:00 +16°C° 0 mm 2 mps 763 mmHg 81%
    08:00 +18°C° 0 mm 2 mps 763 mmHg 72%
    09:00 +21°C° 0 mm 1 mps 764 mmHg 62%
    10:00 +23°C° 0 mm 1 mps 764 mmHg 53%
    11:00 +25°C° 0 mm 1 mps 764 mmHg 50%
    12:00 +26°C° 0 mm 1 mps 764 mmHg 48%
    13:00 +27°C° 0 mm 2 mps 764 mmHg 45%
    14:00 +26°C° 0 mm 2 mps 763 mmHg 50%
    15:00 +25°C° 0 mm 3 mps 763 mmHg 55%
    16:00 +25°C° 0 mm 3 mps 763 mmHg 60%
    17:00 +22°C° 0 mm 3 mps 763 mmHg 66%
    18:00 +21°C° 0 mm 3 mps 763 mmHg 73%
    19:00 +20°C° 0 mm 3 mps 764 mmHg 79%
    20:00 +20°C° 0 mm 3 mps 764 mmHg 81%
    21:00 +19°C° 0 mm 3 mps 764 mmHg 82%
    22:00 +19°C° 0 mm 2 mps 765 mmHg 83%
    23:00 +19°C° 0 mm 2 mps 765 mmHg 84%

    Mañana, 21 Octubre, Lunes

    Tiempo Temperatura Precipitaciones Viento Presión Humedad
    00:00 +19°C° 0 mm 2 mps 765 mmHg 85%
    01:00 +19°C° 0 mm 3 mps 765 mmHg 85%
    02:00 +19°C° 0 mm 3 mps 765 mmHg 85%
    03:00 +19°C° 0 mm 3 mps 764 mmHg 86%
    04:00 +18°C° 0 mm 3 mps 764 mmHg 86%
    05:00 +18°C° 0 mm 2 mps 764 mmHg 85%
    06:00 +18°C° 0 mm 2 mps 765 mmHg 84%
    07:00 +18°C° 0 mm 2 mps 765 mmHg 84%
    08:00 +21°C° 0 mm 2 mps 765 mmHg 74%
    09:00 +24°C° 0 mm 2 mps 765 mmHg 65%
    10:00 +26°C° 0 mm 1 mps 765 mmHg 56%
    11:00 +27°C° 0 mm 2 mps 766 mmHg 53%
    12:00 +28°C° 0 mm 2 mps 766 mmHg 50%
    13:00 +28°C° 0 mm 2 mps 766 mmHg 47%
    14:00 +28°C° 0 mm 2 mps 765 mmHg 51%
    15:00 +27°C° 0 mm 2 mps 765 mmHg 55%
    16:00 +26°C° 0 mm 2 mps 765 mmHg 59%
    17:00 +25°C° 0 mm 2 mps 765 mmHg 64%
    18:00 +23°C° 0 mm 2 mps 766 mmHg 69%
    19:00 +21°C° 0 mm 2 mps 766 mmHg 74%
    20:00 +21°C° 0 mm 2 mps 766 mmHg 73%
    21:00 +21°C° 0 mm 2 mps 766 mmHg 72%
    22:00 +21°C° 0 mm 1 mps 766 mmHg 71%
    23:00 +21°C° 0 mm 1 mps 766 mmHg 72%

    Pasado mañana, 22 Octubre, Martes

    Tiempo Temperatura Precipitaciones Viento Presión Humedad
    00:00 +21°C° 0 mm 1 mps 766 mmHg 73%
    01:00 +21°C° 0 mm 1 mps 766 mmHg 74%
    02:00 +20°C° 0 mm 1 mps 766 mmHg 76%
    03:00 +20°C° 0 mm 1 mps 765 mmHg 78%
    04:00 +20°C° 0 mm 1 mps 765 mmHg 80%
    05:00 +19°C° 0 mm 1 mps 765 mmHg 81%
    06:00 +19°C° 0 mm 1 mps 765 mmHg 82%
    07:00 +19°C° 0 mm 1 mps 765 mmHg 83%
    08:00 +21°C° 0 mm 1 mps 765 mmHg 78%
    09:00 +22°C° 0 mm 1 mps 765 mmHg 73%
    10:00 +24°C° 0 mm 2 mps 765 mmHg 67%
    11:00 +25°C° 0 mm 2 mps 765 mmHg 66%
    12:00 +25°C° 0 mm 2 mps 765 mmHg 64%
    13:00 +26°C° 0 mm 3 mps 765 mmHg 63%
    14:00 +25°C° 0 mm 2 mps 765 mmHg 67%
    15:00 +24°C° 0 mm 2 mps 764 mmHg 71%
    16:00 +24°C° 0 mm 2 mps 764 mmHg 75%
    17:00 +22°C° 0 mm 1 mps 764 mmHg 81%
    18:00 +21°C° 0 mm 1 mps 764 mmHg 86%
    19:00 +17°C° 0 mm 0 mps 764 mmHg 92%
    20:00 +17°C° 0 mm 0 mps 764 mmHg 91%
    21:00 +19°C° 0 mm 1 mps 764 mmHg 91%
    22:00 +19°C° 0 mm 1 mps 764 mmHg 90%
    23:00 +19°C° 0 mm 1 mps 764 mmHg 89%

    23 Octubre, Miércoles

    Tiempo Temperatura Precipitaciones Viento Presión Humedad
    00:00 +19°C° 0 mm 1 mps 764 mmHg 88%
    01:00 +18°C° 0 mm 1 mps 764 mmHg 87%
    02:00 +18°C° 0 mm 1 mps 764 mmHg 87%
    03:00 +18°C° 0 mm 1 mps 763 mmHg 88%
    04:00 +18°C° 0 mm 1 mps 763 mmHg 88%
    05:00 +18°C° 0 mm 1 mps 763 mmHg 88%
    06:00 +16°C° 0 mm 1 mps 763 mmHg 88%
    07:00 +16°C° 0 mm 1 mps 763 mmHg 88%
    08:00 +19°C° 0 mm 1 mps 763 mmHg 81%
    09:00 +21°C° 0 mm 1 mps 763 mmHg 74%
    10:00 +23°C° 0 mm 1 mps 763 mmHg 67%
    11:00 +24°C° 0 mm 1 mps 763 mmHg 64%
    12:00 +24°C° 0 mm 2 mps 763 mmHg 61%
    13:00 +25°C° 0 mm 2 mps 763 mmHg 57%
    14:00 +25°C° 0 mm 2 mps 762 mmHg 62%
    15:00 +24°C° 0 mm 2 mps 762 mmHg 67%
    16:00 +23°C° 0 mm 2 mps 762 mmHg 72%
    17:00 +21°C° 0 mm 2 mps 762 mmHg 78%
    18:00 +19°C° 0 mm 2 mps 762 mmHg 85%
    19:00 +18°C° 0 mm 2 mps 762 mmHg 91%
    20:00 +18°C° 0 mm 2 mps 762 mmHg 90%
    21:00 +18°C° 0 mm 2 mps 762 mmHg 89%
    22:00 +18°C° 0 mm 2 mps 762 mmHg 88%
    23:00 +18°C° 0 mm 2 mps 762 mmHg 86%

    24 Octubre, Jueves

    Tiempo Temperatura Precipitaciones Viento Presión Humedad
    00:00 +19°C° 0 mm 1 mps 762 mmHg 84%
    01:00 +18°C° 0 mm 1 mps 761 mmHg 82%
    02:00 +18°C° 0 mm 1 mps 761 mmHg 83%
    03:00 +18°C° 0 mm 1 mps 761 mmHg 84%
    04:00 +16°C° 0 mm 1 mps 761 mmHg 84%
    05:00 +16°C° 0 mm 1 mps 761 mmHg 84%
    06:00 +16°C° 0 mm 1 mps 761 mmHg 85%
    07:00 +16°C° 0 mm 1 mps 760 mmHg 85%
    08:00 +19°C° 0 mm 1 mps 760 mmHg 79%
    09:00 +20°C° 0 mm 1 mps 760 mmHg 73%
    10:00 +22°C° 0 mm 1 mps 760 mmHg 67%
    11:00 +23°C° 0.1 mm 2 mps 760 mmHg 65%
    12:00 +23°C° 0.1 mm 2 mps 760 mmHg 63%
    13:00 +24°C° 0.1 mm 3 mps 760 mmHg 61%
    14:00 +22°C° 0 mm 3 mps 760 mmHg 65%
    15:00 +22°C° 0 mm 3 mps 759 mmHg 69%
    16:00 +21°C° 0 mm 3 mps 759 mmHg 74%
    17:00 +20°C° 0 mm 2 mps 759 mmHg 79%
    18:00 +19°C° 0 mm 2 mps 759 mmHg 84%
    19:00 +18°C° 0 mm 2 mps 759 mmHg 89%
    20:00 +18°C° 0.1 mm 2 mps 759 mmHg 90%
    21:00 +19°C° 0.1 mm 1 mps 759 mmHg 91%
    22:00 +19°C° 0.1 mm 1 mps 759 mmHg 92%
    23:00 +19°C° 0.1 mm 1 mps 759 mmHg 91%

    25 Octubre, Viernes

    Tiempo Temperatura Precipitaciones Viento Presión Humedad
    00:00 +18°C° 0.1 mm 2 mps 759 mmHg 90%
    01:00 +18°C° 0.1 mm 2 mps 759 mmHg 89%
    02:00 +18°C° 0.4 mm 2 mps 759 mmHg 89%
    03:00 +18°C° 0.4 mm 2 mps 759 mmHg 89%
    04:00 +18°C° 0.4 mm 2 mps 759 mmHg 89%
    05:00 +17°C° 0.2 mm 2 mps 759 mmHg 89%
    06:00 +17°C° 0.2 mm 2 mps 759 mmHg 89%
    07:00 +17°C° 0.2 mm 2 mps 759 mmHg 89%
    08:00 +18°C° 0.1 mm 2 mps 759 mmHg 87%
    09:00 +18°C° 0.1 mm 2 mps 759 mmHg 85%
    10:00 +19°C° 0.1 mm 2 mps 759 mmHg 83%
    11:00 +19°C° 0.1 mm 2 mps 759 mmHg 82%
    12:00 +20°C° 0.1 mm 3 mps 760 mmHg 82%
    13:00 +20°C° 0.1 mm 3 mps 760 mmHg 81%
    14:00 +20°C° 0.1 mm 3 mps 759 mmHg 83%
    15:00 +20°C° 0.1 mm 3 mps 759 mmHg 84%
    16:00 +20°C° 0.1 mm 3 mps 759 mmHg 85%
    17:00 +19°C° 0.1 mm 3 mps 759 mmHg 87%
    18:00 +19°C° 0.1 mm 3 mps 759 mmHg 89%
    19:00 +19°C° 0.1 mm 3 mps 760 mmHg 91%
    20:00 +19°C° 0.1 mm 3 mps 760 mmHg 92%
    21:00 +18°C° 0.1 mm 3 mps 760 mmHg 93%
    22:00 +18°C° 0.1 mm 3 mps 760 mmHg 93%
    23:00 +18°C° 0.1 mm 3 mps 760 mmHg 93%
    Mostrar más